Theta_e
314 314 314 315 315 316 315 314 314 315 315 314 315 315 314 315 315 315 315 315 315 309 309 310 309 308 309 310 310 311 312 311 312 313 314 317 320 321 321 321 321 320 319 318
314 314 315 315 315 314 314 314 314 314 315 314 313 314 314 313 314 314 314 312 310 308 307 306 306 306 306 306 306 307 308 310 310 310 313 315 316 317 318 318 318 318 317 316
315 317 316 316 315 315 314 315 314 314 313 313 312 312 313 314 315 311 310 308 307 306 305 305 305 305 306 306 306 306 306 307 307 308 310 311 313 315 316 315 315 315 315 315
317 315 314 313 313 313 314 314 313 313 312 312 310 311 313 313 312 309 308 307 306 305 304 304 304 305 305 305 305 305 306 306 306 306 307 307 308 309 308 308 308 307 309 311
315 312 312 313 314 314 314 312 312 311 311 311 312 312 314 314 310 309 308 306 305 304 303 303 303 303 303 303 304 303 304 304 303 305 305 305 305 305 306 306 306 306 305 304
312 311 311 313 314 311 311 310 310 310 311 314 315 315 316 313 310 308 308 306 305 304 303 302 302 302 302 302 302 303 303 303 304 303 302 302 302 302 303 304 304 304 303 303
316 314 311 312 313 310 310 310 315 318 314 317 316 317 317 317 310 308 307 306 304 303 303 302 302 302 303 304 304 304 304 303 303 301 302 301 301 301 302 301 301 301 301 301
317 316 313 309 313 314 312 316 317 319 319 318 314 316 318 311 308 308 306 305 303 302 301 300 300 300 300 301 301 302 302 302 301 301 301 300 300 300 300 300 301 300 300 300
314 316 309 309 309 311 316 318 317 319 312 316 315 314 313 309 308 307 305 303 301 300 300 299 299 298 297 296 296 296 296 296 296 298 299 299 299 298 299 299 299 299 299 299
316 317 317 313 311 311 313 311 316 315 313 308 312 312 313 312 310 306 303 301 300 298 297 297 297 297 295 293 292 291 290 290 290 290 291 292 294 294 295 296 297 296 296 297
315 316 315 314 312 313 309 310 310 312 312 313 313 311 311 310 310 306 302 301 299 297 296 295 294 295 295 292 290 289 289 289 288 288 288 288 288 289 290 292 292 293 293 293
313 314 313 313 311 309 310 311 312 316 313 312 313 314 309 305 303 303 302 301 298 297 295 293 292 291 292 290 289 288 288 288 288 287 287 287 287 287 287 287 288 288 289 289
312 311 306 305 307 311 312 311 312 311 310 312 314 312 309 303 303 303 303 300 298 296 292 291 291 290 289 289 289 288 288 287 287 287 287 287 286 286 286 286 286 286 286 286
308 310 305 306 306 306 306 306 307 306 309 308 307 307 305 306 305 304 301 298 297 295 292 291 291 290 289 289 288 288 288 288 288 287 287 287 287 286 286 286 286 286 286 286
306 302 304 304 305 304 303 303 304 305 304 304 304 304 304 305 300 297 295 294 294 295 294 292 290 290 289 289 289 288 288 288 288 287 287 287 287 286 286 286 286 286 286 286
304 297 299 295 300 301 301 301 301 301 301 301 301 301 301 297 296 296 296 294 292 291 291 291 291 290 289 289 289 289 288 288 288 288 288 287 287 286 286 286 286 286 286 286
299 296 291 292 298 296 293 297 298 299 299 299 299 298 294 295 295 293 292 292 292 292 291 290 290 290 290 289 289 288 288 288 286 286 287 287 286 286 285 285 285 285 285 285
297 295 294 290 290 291 295 297 295 295 295 294 293 289 291 292 291 291 291 291 291 291 290 290 290 289 289 289 289 288 287 286 285 285 284 283 282 282 282 283 283 284 283 283
296 296 294 290 289 293 295 294 294 292 291 292 293 291 292 291 291 291 292 291 291 290 290 290 289 289 289 289 289 288 287 285 284 282 281 280 280 279 279 279 279 279 279 280
292 293 293 286 288 286 293 292 293 292 290 292 294 290 292 291 287 288 291 291 290 290 290 289 289 289 289 288 287 286 285 283 281 280 279 278 277 276 276 276 276 276 277 277
286 286 291 292 292 290 292 293 292 289 291 294 293 291 291 289 290 291 291 290 290 289 289 289 289 288 287 286 285 283 281 280 279 278 278 278 277 276 274 273 272 271 271 272
289 286 286 285 285 289 293 291 291 292 293 293 291 291 292 291 291 291 291 290 289 289 289 288 288 287 286 284 282 282 281 279 278 277 277 276 276 274 273 271 270 268 267 267
288 290 287 289 289 292 292 292 292 292 292 292 292 291 291 291 291 290 290 289 289 288 287 287 287 286 283 282 281 281 279 278 277 276 276 275 273 271 269 268 267 266 266 265
291 291 290 290 291 291 291 291 291 291 291 291 291 291 290 290 290 290 289 289 287 287 286 286 284 283 282 281 280 278 277 276 275 275 274 272 269 268 267 266 266 265 265 264
291 291 290 290 291 291 291 291 291 291 291 291 291 290 290 290 289 289 287 287 286 285 285 283 281 281 281 279 278 277 275 274 274 273 272 270 267 266 265 265 265 264 265 265
292 291 291 291 291 291 291 291 291 291 291 291 290 290 290 289 287 286 286 285 285 284 281 281 280 280 279 278 277 276 274 273 272 271 270 267 265 265 265 264 264 266 265 266
Wind_Speed
8 3 6 10 10 10 5 8 11 10 9 12 14 15 9 17 29 29 27 27 7 24 15 13 11 11 5 1 3 9 15 11 13 17 18 21 24 22 25 26 26 29 33 34
3 7 12 7 6 8 10 11 12 8 7 8 10 16 19 19 22 27 14 24 25 19 17 18 18 19 21 19 13 7 4 8 8 10 9 12 12 15 18 20 25 27 29 33
10 6 11 5 7 10 11 11 10 8 7 6 9 7 8 9 5 25 27 27 24 21 19 19 23 25 25 27 25 18 12 6 3 6 11 12 15 15 15 14 18 22 25 30
6 4 2 4 7 6 9 8 2 5 4 3 7 5 6 15 4 14 21 23 19 16 15 19 22 25 27 25 23 21 18 14 10 6 3 3 6 8 7 6 14 16 20 25
2 7 5 6 6 1 4 3 3 5 4 5 7 5 5 7 10 9 14 19 16 15 17 19 20 23 24 25 25 25 22 20 15 11 8 4 2 4 7 10 10 13 16 18
9 2 2 5 3 0 3 4 9 7 5 2 3 4 4 4 8 6 13 16 15 15 15 17 18 19 22 22 23 23 23 22 21 19 15 10 6 4 1 5 8 10 12 13
3 8 4 2 2 3 2 3 4 1 1 5 7 4 4 3 10 13 15 19 15 13 14 15 16 17 17 17 18 19 20 21 20 18 16 17 15 11 9 6 6 8 9 11
4 4 5 5 2 2 4 1 3 5 3 4 6 5 5 7 20 24 22 19 14 13 13 14 14 15 16 16 15 13 13 14 17 16 16 16 14 14 13 13 11 9 10 13
3 2 3 2 3 2 4 2 3 2 3 2 5 5 7 14 11 15 18 17 14 10 9 8 8 9 10 12 13 14 14 13 12 12 13 15 17 18 17 15 15 15 13 11
3 4 1 3 2 2 2 4 1 1 3 4 6 4 7 7 10 10 11 15 10 7 6 5 4 4 6 8 8 11 12 14 15 16 14 12 12 14 16 17 19 20 18 17
4 2 3 1 4 6 2 2 4 1 3 3 8 6 7 6 6 11 11 9 6 4 2 3 4 7 11 10 10 12 15 18 19 19 17 16 16 15 14 15 17 20 22 24
6 3 4 8 8 8 6 9 7 7 6 4 11 15 5 7 9 13 8 6 3 2 2 4 4 3 4 8 12 15 16 17 19 21 21 22 21 21 21 21 19 19 19 21
2 1 2 8 5 3 2 3 2 4 2 7 10 6 5 9 7 5 6 6 3 3 0 1 2 5 8 10 13 15 18 21 21 23 25 27 27 26 27 26 25 24 24 23
3 3 6 6 10 10 6 9 10 3 5 10 13 19 20 13 7 10 7 6 5 5 6 5 6 8 10 12 13 17 19 21 24 25 28 29 30 31 32 32 32 33 33 34
1 4 2 9 10 10 10 13 18 16 16 12 22 22 23 19 5 6 4 5 3 5 9 8 9 13 14 15 16 20 23 24 27 28 29 31 33 34 35 36 38 40 42 42
3 3 3 6 6 10 15 21 19 19 21 22 22 24 13 10 5 1 1 4 1 5 8 10 10 11 13 16 19 22 25 27 29 31 34 34 34 36 39 41 42 43 44 44
3 3 2 6 2 4 7 18 20 18 20 20 18 13 2 2 1 2 4 5 8 10 9 9 13 16 16 16 15 18 19 21 26 33 35 37 38 40 40 40 41 43 45 46
5 4 3 4 5 4 8 2 5 9 12 6 5 3 6 4 4 4 6 13 11 5 10 13 14 16 19 22 24 24 25 29 34 36 38 39 39 41 42 43 46 49 51 52
16 7 3 3 6 9 15 6 3 3 7 3 4 5 8 4 8 9 6 9 12 16 16 15 15 17 16 20 25 29 33 35 37 38 39 39 39 41 44 48 51 54 54 58
2 7 6 2 4 7 1 6 7 3 8 9 9 6 2 6 1 5 14 17 19 16 14 15 17 20 23 25 29 33 36 38 39 40 43 45 47 48 46 47 48 47 48 53
3 1 9 12 7 6 1 4 7 4 11 9 15 11 8 4 13 24 21 17 15 14 19 22 22 25 26 29 33 36 37 40 42 46 49 51 51 51 51 52 50 50 50 52
6 5 5 2 2 7 2 6 6 4 1 7 12 14 18 26 26 21 21 18 15 19 22 23 26 28 29 32 36 40 44 47 49 49 50 51 52 52 53 52 52 49 44 42
2 8 4 7 5 5 8 10 12 13 18 23 24 29 31 25 24 24 19 18 21 21 21 24 27 29 30 33 39 44 47 47 48 49 50 52 52 51 47 45 43 43 40 38
5 17 5 6 9 17 34 32 34 36 33 31 27 30 31 28 25 23 24 23 21 21 22 25 27 28 33 37 41 42 42 43 45 48 49 49 49 45 41 39 40 40 40 40
13 3 9 11 13 26 29 32 34 34 37 36 32 28 30 28 25 24 22 21 21 21 23 24 25 30 36 39 40 38 37 39 43 45 46 46 43 41 42 40 39 37 38 38
25 22 11 11 24 21 23 30 30 27 28 26 25 28 31 28 23 20 20 21 21 21 21 23 27 33 37 38 38 35 35 37 40 43 43 41 42 41 40 41 42 36 34 35
Wind_Direction
185 212 205 229 240 264 314 309 298 298 307 299 285 289 308 293 276 286 292 292 325 72 56 45 41 34 28 318 232 226 218 218 242 250 249 240 235 241 241 241 244 246 254 256
129 227 238 266 326 310 297 286 284 279 284 325 320 300 290 276 270 269 289 72 74 66 55 53 57 60 57 60 64 70 132 198 232 229 235 237 241 247 255 256 250 247 251 257
216 262 329 311 296 275 272 271 291 313 343 303 300 282 268 280 346 79 70 74 67 60 53 50 53 57 61 59 57 62 70 109 196 206 225 233 226 227 227 240 252 255 248 252
239 223 196 248 260 253 277 261 320 301 335 236 45 282 327 281 77 81 77 73 69 66 67 60 54 55 54 55 58 58 63 70 84 109 150 208 198 224 226 255 276 276 263 259
199 169 185 213 230 272 262 10 280 254 244 307 233 249 245 235 107 103 91 88 78 72 64 60 58 55 55 54 51 52 53 55 56 64 69 85 149 234 219 218 244 265 277 279
261 103 278 230 230 282 11 296 269 257 218 284 238 212 304 92 156 123 110 102 96 80 71 63 55 50 49 45 43 42 44 48 48 48 47 44 33 16 322 219 257 275 282 289
266 226 204 209 250 126 85 329 308 276 119 212 51 3 258 348 171 153 132 111 95 84 65 52 42 34 29 30 27 25 21 23 28 28 38 42 44 36 32 13 320 304 290 299
238 291 124 161 210 10 175 338 191 265 320 308 2 236 246 84 85 102 108 105 87 67 51 40 29 26 21 21 22 24 22 16 12 9 16 16 16 24 30 29 20 353 315 291
322 203 163 149 66 62 141 191 75 39 234 212 232 276 289 116 105 112 109 98 89 73 56 43 28 27 31 20 12 15 20 23 22 13 9 6 4 4 7 10 8 3 356 339
30 307 110 83 109 219 189 111 42 174 260 240 261 281 265 94 138 124 109 106 110 117 110 103 78 27 34 35 23 13 14 21 23 23 23 23 14 3 1 2 357 350 344 340
110 206 240 51 180 191 156 195 210 253 203 252 274 257 96 86 109 129 128 131 142 144 111 72 55 34 360 6 15 12 7 5 7 10 8 8 8 7 2 6 352 344 341 339
202 188 237 241 288 310 275 266 266 247 254 243 257 258 26 109 119 130 142 170 192 177 318 13 27 49 18 6 3 358 359 358 356 353 351 351 354 353 356 358 350 339 332 330
40 241 320 322 288 70 88 42 0 304 255 247 267 267 53 98 125 170 192 199 253 305 14 346 357 16 2 355 349 350 346 344 345 343 341 341 342 343 342 342 339 335 332 331
56 225 181 230 262 324 301 291 274 255 277 286 274 287 290 289 313 292 186 192 214 231 246 288 313 326 330 332 337 340 341 337 332 333 331 331 330 330 330 328 324 322 322 322
131 252 267 278 290 305 295 277 274 273 266 257 272 280 279 291 310 64 104 116 153 248 257 256 269 296 307 307 312 326 329 333 334 332 326 322 323 322 320 317 315 314 314 314
157 254 19 286 276 270 269 266 270 270 268 267 267 269 294 34 37 3 83 138 11 345 322 324 276 276 278 282 291 308 314 318 321 324 324 320 316 314 314 312 310 308 307 305
206 163 138 254 35 345 299 248 249 256 260 265 273 284 350 305 254 75 36 329 300 293 299 314 306 292 289 287 288 288 291 288 303 310 314 314 313 311 309 307 304 303 303 302
217 156 169 258 47 247 251 117 327 275 274 283 280 167 168 138 23 338 306 287 285 297 309 308 299 293 299 287 284 285 292 298 310 314 314 314 312 310 308 306 302 300 299 297
224 215 243 202 207 280 306 299 339 95 280 209 210 198 187 30 327 291 309 321 319 308 302 302 299 297 294 289 290 297 303 312 314 314 313 311 306 302 300 299 298 298 296 294
192 213 197 182 200 225 283 106 122 113 269 219 192 163 97 321 4 271 302 297 298 292 295 290 287 293 296 300 303 306 310 313 314 312 309 307 304 301 297 294 292 289 285 286
125 296 217 233 248 271 271 120 112 138 270 166 184 183 253 235 267 288 291 285 288 279 280 283 290 301 305 308 311 313 315 316 314 312 310 308 307 306 303 301 298 294 288 283
157 169 217 163 219 279 162 132 173 233 104 198 204 250 280 300 297 291 283 279 272 271 277 289 301 308 313 315 317 317 316 317 315 313 311 311 310 310 309 308 306 305 300 291
245 205 197 178 203 228 216 233 240 268 282 280 271 281 289 290 291 290 280 265 270 278 287 296 303 309 313 315 317 315 316 316 314 313 314 315 315 315 315 314 313 312 310 301
246 232 226 245 248 258 265 269 270 275 281 284 279 284 285 285 283 277 265 268 277 286 291 299 306 310 314 317 317 317 318 317 316 316 318 320 320 319 318 317 315 310 305 300
225 160 230 250 252 259 266 268 271 273 273 277 280 283 283 273 271 271 262 272 280 284 292 301 307 311 314 317 317 319 320 318 318 319 322 323 321 322 319 317 314 307 302 299
233 236 239 249 251 253 265 277 280 272 273 281 282 285 278 269 264 257 263 271 275 284 293 299 306 311 315 316 317 322 321 320 322 324 323 326 326 324 321 317 314 316 301 299